GW3188 Weather Reports


time (UTC)temp
C
wind
direction
speed
KPH
gust
KPH
rain 1hr
cm
rain 24hr
cm
rain mn
cm
humidity
%
barometer
mb
20260507220549 11 290 1.6 9.7 0.00 0.13 0.10 86 1011.6
20260507220101 11 126 3.2 9.7 0.00 0.13 0.10 86 1011.6
20260507215550 12 145 3.2 9.7 0.00 0.13 0.10 85 1011.6
20260507215050 12 0 4.8 11.3 0.00 0.13 0.10 85 1011.5
20260507214609 12 182 1.6 11.3 0.00 0.13 0.10 84 1011.6
20260507214049 12 159 1.6 8.0 0.00 0.13 0.10 84 1011.6
20260507213549 12 201 1.6 6.4 0.00 0.13 0.10 84 1011.6
20260507213106 12 0 0.0 0.0 0.00 0.13 0.10 84 1011.6
20260507212549 12 0 0.0 0.0 0.00 0.13 0.10 83 1011.6
20260507212049 12 0 0.0 0.0 0.00 0.13 0.10 84 1011.6
20260507211555 12 0 0.0 0.0 0.00 0.13 0.10 83 1011.7
20260507211048 12 0 0.0 0.0 0.00 0.13 0.10 84 1011.6
20260507210549 12 0 0.0 0.0 0.00 0.13 0.10 84 1011.5
20260507210059 12 0 0.0 0.0 0.00 0.13 0.10 84 1011.6
20260507205548 12 0 0.0 4.8 0.00 0.13 0.10 82 1011.5
20260507205047 12 0 0.0 4.8 0.00 0.13 0.10 82 1011.7
20260507204607 12 96 1.6 4.8 0.00 0.13 0.10 82 1011.5
20260507204051 12 0 0.0 4.8 0.00 0.13 0.10 82 1011.5
20260507203548 12 101 1.6 4.8 0.00 0.13 0.10 82 1011.5
20260507203050 11 125 0.0 4.8 0.00 0.13 0.10 82 1011.6
20260507202548 11 134 0.0 4.8 0.00 0.13 0.10 82 1011.7
20260507202048 11 117 1.6 4.8 0.00 0.13 0.10 82 1011.6
20260507201551 11 103 1.6 6.4 0.00 0.13 0.10 83 1011.7
20260507201051 11 103 1.6 6.4 0.00 0.13 0.10 82 1011.6
20260507200548 11 111 3.2 11.3 0.00 0.13 0.10 83 1011.6
20260507200050 11 130 3.2 11.3 0.00 0.13 0.10 82 1011.8
20260507195548 11 136 4.8 11.3 0.00 0.13 0.10 82 1012.0
20260507195049 11 150 3.2 11.3 0.00 0.13 0.10 83 1012.0
20260507194548 11 101 4.8 11.3 0.00 0.13 0.10 85 1012.0
20260507194047 11 142 4.8 9.7 0.00 0.13 0.10 85 1012.1
20260507193547 11 165 6.4 11.3 0.00 0.13 0.10 86 1012.2
20260507193101 11 126 4.8 12.9 0.00 0.13 0.10 86 1012.1
20260507192550 11 140 6.4 14.5 0.00 0.13 0.10 86 1012.1
20260507192047 11 121 4.8 14.5 0.00 0.13 0.10 85 1012.4
20260507191554 11 148 8.0 12.9 0.00 0.13 0.10 85 1012.4
20260507191048 11 187 6.4 11.3 0.00 0.13 0.10 86 1012.1
20260507190548 11 131 6.4 11.3 0.00 0.13 0.10 86 1012.3
20260507185547 12 123 3.2 9.7 0.00 0.13 0.10 87 1012.4
20260507185048 12 148 4.8 9.7 0.00 0.13 0.10 86 1012.0
20260507184555 12 113 3.2 6.4 0.00 0.13 0.10 85 1012.5
20260507184049 12 106 3.2 6.4 0.00 0.13 0.10 85 1012.8
20260507183548 12 121 3.2 6.4 0.00 0.13 0.10 85 1012.8
20260507183100 12 107 1.6 6.4 0.00 0.13 0.10 85 1012.7
20260507182551 12 134 3.2 8.0 0.00 0.13 0.10 85 1012.7
20260507182048 12 100 1.6 8.0 0.00 0.13 0.10 85 1012.5
20260507181556 12 129 3.2 8.0 0.00 0.13 0.10 86 1012.7
20260507181048 11 0 0.0 6.4 0.00 0.13 0.10 86 1012.6
20260507180548 11 123 3.2 8.0 0.00 0.13 0.10 86 1012.6
20260507180105 11 86 0.0 8.0 0.00 0.13 0.10 87 1012.6
20260507175547 11 145 3.2 8.0 0.00 0.13 0.10 86 1012.8
20260507175047 11 131 1.6 8.0 0.00 0.13 0.10 87 1012.7
20260507174552 11 131 3.2 8.0 0.00 0.13 0.10 87 1012.8
20260507174053 11 76 1.6 8.0 0.00 0.13 0.10 87 1013.0
20260507173549 11 75 1.6 8.0 0.00 0.13 0.10 87 1012.9
20260507173056 11 159 0.0 11.3 0.00 0.13 0.10 88 1012.9
20260507172551 11 128 3.2 11.3 0.00 0.13 0.10 88 1013.0
20260507172049 11 144 3.2 6.4 0.00 0.13 0.10 87 1013.0
20260507171557 11 113 1.6 6.4 0.00 0.13 0.10 88 1013.0
20260507171049 11 139 0.0 4.8 0.00 0.13 0.10 88 1013.2
20260507170549 11 0 0.0 6.4 0.00 0.13 0.10 89 1013.3
20260507170059 11 0 0.0 6.4 0.00 0.13 0.10 88 1013.4
20260507165549 11 70 1.6 4.8 0.00 0.13 0.10 88 1013.4
20260507165049 11 0 1.6 4.8 0.00 0.13 0.10 88 1013.6
20260507164557 11 65 0.0 4.8 0.00 0.13 0.10 88 1013.5
20260507164050 11 107 1.6 4.8 0.00 0.13 0.10 88 1013.6
20260507163549 11 49 0.0 6.4 0.00 0.13 0.10 88 1013.7
20260507163056 11 121 1.6 11.3 0.00 0.13 0.10 88 1013.7
20260507162549 11 123 3.2 11.3 0.03 0.13 0.10 88 1013.8
20260507162053 11 148 6.4 14.5 0.03 0.13 0.10 88 1013.8
20260507161559 11 98 4.8 14.5 0.03 0.13 0.10 89 1013.8
20260507161049 11 146 6.4 14.5 0.03 0.13 0.10 89 1013.7
20260507160552 11 79 3.2 6.4 0.03 0.13 0.10 91 1013.7
20260507155549 11 117 3.2 9.7 0.03 0.13 0.10 91 1014.0
20260507155049 11 159 3.2 11.3 0.03 0.13 0.10 91 1014.0
20260507154555 11 95 4.8 11.3 0.03 0.13 0.10 90 1014.1
20260507154050 11 117 3.2 9.7 0.03 0.13 0.10 89 1014.4
20260507153551 11 129 1.6 8.0 0.03 0.13 0.10 91 1014.2
20260507153056 11 128 1.6 6.4 0.03 0.13 0.10 90 1014.2
20260507152550 11 131 1.6 8.0 0.00 0.10 0.08 90 1014.3
20260507152050 11 132 1.6 8.0 0.00 0.10 0.08 90 1014.2
20260507151553 11 0 0.0 3.2 0.00 0.10 0.08 90 1014.4
20260507151049 11 0 0.0 11.3 0.00 0.10 0.08 90 1014.4
20260507150551 11 0 0.0 11.3 0.03 0.10 0.08 91 1014.0
20260507150055 11 90 3.2 11.3 0.03 0.10 0.08 90 1014.0
20260507145548 11 96 0.0 4.8 0.03 0.10 0.08 91 1014.0
20260507145051 11 0 1.6 6.4 0.03 0.10 0.08 91 1014.1
20260507144555 11 0 0.0 6.4 0.03 0.10 0.08 91 1014.1
20260507144048 11 0 1.6 4.8 0.05 0.10 0.08 91 1014.0
20260507143548 11 71 1.6 6.4 0.05 0.10 0.08 91 1014.0
20260507143102 11 123 1.6 6.4 0.05 0.10 0.08 90 1014.2
20260507142548 11 0 1.6 6.4 0.05 0.10 0.08 90 1014.2
20260507142049 11 74 1.6 6.4 0.05 0.10 0.08 90 1014.6
20260507141602 11 0 0.0 8.0 0.05 0.10 0.08 90 1014.5
20260507141049 11 0 0.0 8.0 0.05 0.10 0.08 90 1014.4
20260507140549 11 47 1.6 6.4 0.03 0.08 0.05 89 1014.5
20260507140121 11 0 0.0 3.2 0.03 0.08 0.05 89 1014.4
20260507135548 11 0 0.0 4.8 0.03 0.13 0.05 90 1014.5
20260507135048 11 161 0.0 4.8 0.03 0.13 0.05 89 1014.6
20260507134551 11 0 1.6 4.8 0.03 0.13 0.05 89 1014.5
20260507134048 11 5 0.0 4.8 0.00 0.10 0.03 89 1014.5
20260507133548 11 0 1.6 6.4 0.00 0.10 0.03 89 1014.7
20260507133100 11 0 0.0 6.4 0.00 0.10 0.03 89 1014.5
20260507132547 11 109 3.2 6.4 0.00 0.10 0.03 89 1014.6
20260507132047 11 123 1.6 6.4 0.00 0.10 0.03 89 1014.6
20260507131602 11 119 0.0 6.4 0.00 0.10 0.03 89 1014.5
20260507131052 11 159 1.6 6.4 0.00 0.10 0.03 89 1014.4
20260507130548 11 136 1.6 6.4 0.00 0.10 0.03 89 1014.4
20260507130109 11 0 0.0 4.8 0.00 0.10 0.03 89 1014.4
20260507125551 11 0 0.0 4.8 0.00 0.10 0.03 89 1014.3
20260507125049 11 90 0.0 4.8 0.00 0.10 0.03 90 1014.1
20260507124605 11 154 1.6 4.8 0.00 0.10 0.03 90 1014.3
20260507124048 11 0 0.0 4.8 0.00 0.10 0.03 90 1014.3
20260507123549 11 0 0.0 4.8 0.00 0.10 0.03 90 1014.2
20260507123058 11 0 1.6 6.4 0.00 0.10 0.03 91 1014.2
20260507122547 11 0 0.0 6.4 0.00 0.10 0.03 91 1014.2
20260507122049 11 140 1.6 6.4 0.00 0.10 0.03 90 1014.2
20260507121551 11 0 1.6 6.4 0.00 0.10 0.03 91 1014.2
20260507121048 11 154 1.6 4.8 0.00 0.10 0.03 91 1014.3
20260507120548 11 0 1.6 4.8 0.00 0.10 0.03 91 1014.1
20260507120050 11 0 0.0 4.8 0.00 0.10 0.03 91 1014.1
20260507115548 11 93 1.6 4.8 0.00 0.10 0.03 91 1013.9
20260507115047 11 0 0.0 3.2 0.00 0.10 0.03 91 1014.1
20260507114550 11 124 0.0 8.0 0.00 0.10 0.03 91 1014.0
20260507114048 11 124 1.6 8.0 0.00 0.10 0.03 91 1013.9
20260507113547 11 111 1.6 8.0 0.00 0.10 0.03 91 1013.9
20260507113053 11 0 1.6 8.0 0.00 0.10 0.03 91 1013.8
20260507112548 11 0 3.2 8.0 0.00 0.10 0.03 91 1013.7
20260507112048 12 126 3.2 8.0 0.00 0.10 0.03 91 1013.6
20260507111556 12 32 1.6 4.8 0.00 0.10 0.03 91 1013.6
20260507111048 12 0 1.6 6.4 0.00 0.10 0.03 91 1013.7
20260507110548 12 32 0.0 6.4 0.00 0.10 0.03 91 1013.6
20260507110056 12 338 0.0 6.4 0.00 0.10 0.03 91 1013.3
20260507105547 12 105 0.0 3.2 0.00 0.10 0.03 91 1013.3
20260507105047 12 0 0.0 6.4 0.00 0.10 0.03 91 1013.1
20260507104555 12 34 1.6 9.7 0.00 0.10 0.03 91 1012.9
20260507104047 12 82 1.6 6.4 0.00 0.10 0.03 91 1012.9
20260507103548 12 24 1.6 6.4 0.00 0.10 0.03 91 1013.1
20260507103056 12 19 1.6 6.4 0.00 0.10 0.03 91 1013.0
20260507102548 12 0 3.2 6.4 0.00 0.10 0.03 91 1013.0
20260507102048 12 0 0.0 4.8 0.00 0.10 0.03 91 1013.1
20260507101557 12 36 1.6 4.8 0.00 0.10 0.03 91 1013.1
20260507101047 12 360 0.0 3.2 0.00 0.10 0.03 91 1013.1
20260507100547 12 352 0.0 3.2 0.00 0.10 0.03 92 1013.0
20260507100053 12 360 1.6 6.4 0.00 0.10 0.03 92 1012.9
20260507095549 12 0 1.6 6.4 0.00 0.10 0.03 92 1013.0
20260507095049 12 25 0.0 4.8 0.00 0.10 0.03 92 1013.1
20260507094557 12 0 1.6 4.8 0.00 0.10 0.03 92 1013.1
20260507094047 12 352 1.6 4.8 0.00 0.10 0.03 91 1013.0
20260507093548 12 346 0.0 11.3 0.00 0.10 0.03 91 1012.8
20260507093058 12 352 1.6 11.3 0.00 0.10 0.03 91 1012.5
20260507092548 12 0 0.0 4.8 0.00 0.10 0.03 91 1012.5
20260507092048 12 352 1.6 6.4 0.00 0.10 0.03 91 1012.7
20260507091559 12 28 0.0 6.4 0.00 0.10 0.03 91 1012.8
20260507091049 12 88 1.6 4.8 0.00 0.10 0.03 91 1013.0
20260507090549 12 352 0.0 11.3 0.00 0.10 0.03 91 1012.7
20260507090054 13 342 0.0 11.3 0.00 0.10 0.03 91 1012.8
20260507085550 13 134 3.2 9.7 0.00 0.10 0.03 90 1012.8
20260507085048 13 121 1.6 9.7 0.00 0.10 0.03 90 1012.8
20260507084559 13 73 3.2 9.7 0.00 0.10 0.03 90 1012.7
20260507084047 13 17 3.2 9.7 0.00 0.10 0.03 89 1012.4
20260507083549 13 340 3.2 9.7 0.00 0.10 0.03 89 1012.2
20260507083057 14 61 3.2 9.7 0.00 0.10 0.03 89 1012.2
20260507082547 15 58 1.6 8.0 0.00 0.10 0.03 89 1012.5
20260507082051 15 38 1.6 6.4 0.00 0.10 0.03 89 1012.3
20260507081555 15 352 1.6 6.4 0.00 0.10 0.03 89 1012.3
20260507081048 16 10 3.2 11.3 0.00 0.10 0.03 88 1012.1
20260507080549 16 14 3.2 11.3 0.00 0.10 0.03 87 1012.1
20260507080116 16 0 3.2 8.0 0.00 0.10 0.03 87 1011.9
20260507075551 17 352 4.8 8.0 0.00 0.10 0.03 84 1012.0
20260507075049 17 84 1.6 11.3 0.00 0.10 0.03 80 1011.9
20260507074601 17 42 3.2 11.3 0.00 0.10 0.03 76 1011.7
20260507074049 17 341 4.8 14.5 0.00 0.10 0.03 76 1011.9
20260507073549 17 0 3.2 14.5 0.00 0.10 0.03 82 1011.9
20260507073104 17 323 3.2 16.1 0.00 0.10 0.03 81 1011.9
20260507072549 17 282 3.2 16.1 0.00 0.10 0.03 85 1011.8
20260507072049 17 304 3.2 14.5 0.00 0.10 0.03 81 1011.5
20260507071602 16 281 1.6 9.7 0.00 0.10 0.03 86 1011.5
20260507071049 16 23 0.0 6.4 0.00 0.10 0.03 87 1011.4
20260507070547 17 0 0.0 12.9 0.00 0.10 0.03 88 1011.4
20260507070053 17 281 3.2 12.9 0.00 0.10 0.03 87 1011.4
20260507065548 16 317 3.2 14.5 0.00 0.10 0.03 88 1011.1
20260507065048 16 317 4.8 14.5 0.00 0.10 0.03 89 1011.1
20260507064556 16 329 4.8 14.5 0.00 0.10 0.03 91 1011.0
20260507064049 16 265 1.6 8.0 0.00 0.10 0.03 93 1011.1
20260507063549 16 0 0.0 8.0 0.00 0.10 0.03 93 1011.1
20260507063055 16 284 3.2 12.9 0.00 0.10 0.03 94 1011.5
20260507062548 16 290 1.6 12.9 0.00 0.10 0.03 94 1011.7
20260507062048 16 284 1.6 6.4 0.00 0.10 0.03 94 1011.9
20260507061553 16 131 1.6 6.4 0.00 0.10 0.03 94 1011.8
20260507061048 16 0 1.6 6.4 0.00 0.10 0.03 94 1012.1
20260507060547 16 328 1.6 6.4 0.00 0.10 0.03 94 1012.0
20260507060052 16 0 0.0 0.0 0.00 0.10 0.03 94 1011.8
20260507055547 16 0 0.0 0.0 0.00 0.10 0.03 94 1012.0
20260507055049 16 0 0.0 0.0 0.00 0.10 0.03 94 1011.7
20260507054600 16 0 0.0 0.0 0.00 0.10 0.03 94 1011.8
20260507054048 16 0 0.0 0.0 0.03 0.10 0.03 93 1012.0
20260507053548 16 0 0.0 0.0 0.03 0.10 0.03 93 1011.8
20260507053050 16 0 0.0 0.0 0.03 0.10 0.03 93 1011.5
20260507052552 16 0 0.0 0.0 0.03 0.10 0.03 93 1011.2
20260507052048 16 0 0.0 0.0 0.03 0.10 0.03 93 1011.3
20260507051553 16 0 0.0 0.0 0.03 0.10 0.03 93 1010.9
20260507051048 16 0 0.0 0.0 0.03 0.10 0.03 93 1010.7
20260507050547 16 0 0.0 0.0 0.03 0.10 0.03 93 1010.6
20260507050055 17 0 0.0 0.0 0.03 0.10 0.03 93 1010.6
20260507045549 17 0 0.0 0.0 0.03 0.10 0.03 93 1010.9
20260507045048 17 0 0.0 0.0 0.05 0.10 0.03 93 1011.0
20260507044614 17 0 0.0 0.0 0.05 0.10 0.03 92 1010.9
20260507044050 17 0 0.0 0.0 0.03 0.08 0.00 92 1011.2
20260507043548 17 0 0.0 0.0 0.03 0.08 0.00 92 1011.3
20260507043053 17 0 0.0 0.0 0.03 0.08 0.00 92 1011.5
20260507042551 17 0 0.0 0.0 0.03 0.08 0.00 92 1011.4
20260507042048 17 0 0.0 0.0 0.03 0.08 0.00 92 1011.6
20260507041600 17 0 0.0 3.2 0.03 0.08 0.00 91 1011.7
20260507041048 17 0 0.0 4.8 0.03 0.08 0.00 91 1011.8
20260507040550 17 0 0.0 4.8 0.03 0.08 0.00 91 1011.6
20260507040104 17 0 0.0 4.8 0.03 0.08 0.00 90 1011.4
20260507035549 17 0 1.6 4.8 0.03 0.08 0.08 90 1011.4
20260507035049 17 19 1.6 4.8 0.00 0.05 0.05 89 1011.2
20260507034557 18 0 0.0 4.8 0.00 0.05 0.05 88 1011.2
20260507034049 18 352 1.6 6.4 0.00 0.05 0.05 87 1011.7
20260507033549 18 5 3.2 6.4 0.00 0.05 0.05 86 1012.0
20260507033058 18 352 1.6 4.8 0.00 0.05 0.05 85 1012.0
20260507032549 18 87 0.0 8.0 0.00 0.05 0.05 84 1012.0
20260507032048 18 292 1.6 9.7 0.00 0.05 0.05 84 1012.2
20260507031548 18 0 3.2 9.7 0.00 0.05 0.05 83 1012.1
20260507031050 19 0 0.0 11.3 0.00 0.05 0.05 83 1011.9
20260507030549 19 0 1.6 11.3 0.00 0.05 0.05 82 1011.5
20260507030100 18 156 0.0 8.0 0.00 0.05 0.05 82 1011.5
20260507025549 18 167 3.2 19.3 0.00 0.05 0.05 83 1011.5
20260507025049 18 329 3.2 19.3 0.00 0.05 0.05 83 1011.6
20260507024554 18 149 8.0 19.3 0.00 0.05 0.05 83 1011.7
20260507024049 18 201 1.6 6.4 0.00 0.05 0.05 84 1011.5
20260507023552 18 0 0.0 8.0 0.00 0.05 0.05 85 1011.5
20260507023052 18 0 0.0 6.4 0.00 0.05 0.05 85 1011.6
20260507022548 18 160 1.6 6.4 0.00 0.05 0.05 85 1011.7
20260507022049 18 321 3.2 6.4 0.00 0.05 0.05 85 1011.7
20260507021551 18 0 0.0 6.4 0.00 0.05 0.05 85 1011.3
20260507021049 18 0 1.6 9.7 0.00 0.05 0.05 85 1011.2
20260507020549 18 12 3.2 9.7 0.00 0.05 0.05 85 1011.2
20260507015548 18 317 1.6 9.7 0.00 0.05 0.05 84 1010.9
20260507015048 18 153 0.0 4.8 0.00 0.05 0.05 84 1010.4
20260507014602 18 40 0.0 4.8 0.00 0.05 0.05 84 1010.7
20260507014049 18 0 0.0 3.2 0.00 0.05 0.05 84 1011.2
20260507013548 18 304 0.0 4.8 0.00 0.05 0.05 84 1011.1
20260507013051 18 0 0.0 4.8 0.00 0.05 0.05 84 1011.2
20260507012549 18 0 1.6 4.8 0.00 0.05 0.05 84 1011.3
20260507012049 18 0 0.0 0.0 0.00 0.05 0.05 83 1011.4
20260507011601 18 0 0.0 0.0 0.00 0.05 0.05 83 1011.2
20260507011049 18 0 0.0 6.4 0.00 0.05 0.05 83 1011.2
20260507010548 18 0 0.0 6.4 0.00 0.05 0.05 83 1011.3
20260507010052 18 188 0.0 6.4 0.00 0.05 0.05 83 1011.4
20260507005549 18 169 0.0 4.8 0.00 0.05 0.05 83 1011.5
20260507005053 18 0 1.6 6.4 0.00 0.05 0.05 83 1011.6
20260507004553 18 0 0.0 6.4 0.00 0.05 0.05 82 1011.6
20260507004048 18 146 0.0 6.4 0.00 0.05 0.05 82 1011.5
20260507003549 18 0 1.6 8.0 0.00 0.05 0.05 82 1011.6
20260507003052 18 0 0.0 16.1 0.00 0.05 0.05 82 1011.4
20260507002548 18 151 3.2 16.1 0.00 0.05 0.05 81 1011.3
20260507002051 18 168 1.6 6.4 0.00 0.05 0.05 81 1011.3
20260507001606 19 257 0.0 12.9 0.00 0.05 0.05 81 1011.3
20260507001047 19 151 4.8 12.9 0.00 0.05 0.05 81 1011.3
20260507000551 19 163 1.6 8.0 0.00 0.05 0.05 80 1011.3
20260507000058 19 164 1.6 8.0 0.00 0.05 0.05 80 1011.5
20260506235548 19 0 1.6 6.4 0.00 0.05 0.05 80 1011.3
20260506235050 19 172 0.0 11.3 0.00 0.05 0.05 79 1011.1
20260506234555 19 0 1.6 11.3 0.00 0.05 0.05 79 1011.2
20260506234048 20 302 3.2 11.3 0.00 0.05 0.05 79 1010.9
20260506233613 20 214 1.6 12.9 0.00 0.05 0.05 79 1010.6
20260506233052 20 267 0.0 12.9 0.00 0.05 0.05 79 1010.6
20260506232550 20 116 3.2 16.1 0.00 0.05 0.05 79 1011.0
20260506232052 20 0 1.6 16.1 0.00 0.05 0.05 79 1011.2
20260506231551 20 143 3.2 12.9 0.00 0.05 0.05 79 1011.2
20260506231052 20 141 4.8 12.9 0.00 0.05 0.05 78 1011.2
20260506230550 20 115 3.2 14.5 0.00 0.05 0.05 78 1011.2
20260506230053 20 186 3.2 16.1 0.00 0.05 0.05 77 1011.2
20260506225550 20 228 3.2 16.1 0.00 0.05 0.05 77 1011.0
20260506225049 20 146 4.8 16.1 0.00 0.05 0.05 76 1010.8
20260506224554 20 194 6.4 16.1 0.00 0.05 0.05 76 1010.7
20260506224049 20 300 4.8 16.1 0.00 0.05 0.05 76 1010.8
20260506223548 20 98 4.8 16.1 0.00 0.05 0.05 76 1010.5
20260506223054 20 158 6.4 20.9 0.00 0.05 0.05 76 1010.4
20260506222548 20 191 6.4 20.9 0.00 0.05 0.05 76 1010.4
20260506222052 20 201 4.8 20.9 0.00 0.05 0.05 76 1010.6
20260506221553 20 270 4.8 20.9 0.00 0.05 0.05 77 1010.4
20260506221048 20 181 6.4 16.1 0.00 0.05 0.05 76 1010.4